Home > Weather > Cartagena > Past weeks

Flag for Colombia Past Weather in Cartagena, Colombia — Yesterday and Last 2 Weeks

Now
79 °F

Passing clouds.


Feels Like: 83 °F
Forecast: 80 / 87 °F
Wind: No wind

Location: Cartagena / Rafael Nunez

Current Time: May 30, 2016 at 5:50:28 AM

Latest Report: May 30, 2016 at 5:00 AM


Visibility: N/A

Pressure: 29.84 "Hg

Humidity: 94%

Dew Point: 77 °F

Location of CartagenaLocation

Past Weather in Cartagena — Graph

°F

Cartagena Temperature Yesterday

Maximum temperature yesterday: 84 °F (at 1:00 PM)
Minimum temperature yesterday: 81 °F (at 3:00 AM)
Average temperature yesterday: 82 °F

High & Low Weather Summary for the Past Weeks

 TemperatureHumidityPressure
High95 °F (May 22, 11:00 AM)100% (May 25, 8:00 PM)29.94 "Hg (May 25, 8:00 PM)
Low75 °F (May 25, 8:00 PM)59% (May 20, 10:00 AM)29.71 "Hg (May 19, 5:00 PM)
Average85 °F83%29.81 "Hg
* Reported May 15 4:00 AM — May 30 4:00 AM, Cartagena, Weather by CustomWeather, © 2016

Note: Actual official high and low records may vary slightly from our data, if they occured in-between our weather recording intervals... More about our weather records

Advertising

Cartagena Weather History for the Previous 24 Hours

Scroll right to see more
 ConditionsComfort  
Time TempWeatherWind HumidityBarometerVisibility
4:00 AM
Mon, May 30
79 °FPartly cloudy.No wind94%29.83 "HgN/A
3:00 AM81 °FPassing clouds.No wind89%29.83 "HgN/A
2:00 AM82 °FPassing clouds.No wind79%29.85 "HgN/A
1:00 AM82 °FPassing clouds.No wind79%29.87 "HgN/A
12:00 AM82 °FPassing clouds.6 mph84%29.89 "HgN/A
11:00 PM
Sun, May 29
82 °FPassing clouds.5 mph84%29.90 "HgN/A
10:00 PM82 °FPassing clouds.No wind79%29.90 "HgN/A
9:00 PM82 °FPassing clouds.No wind84%29.89 "HgN/A
8:00 PM82 °FPassing clouds.5 mph84%29.89 "HgN/A
7:00 PM82 °FPassing clouds.No wind84%29.86 "HgN/A
6:00 PM84 °FBroken clouds.No wind79%29.85 "HgN/A
5:00 PM84 °FMore clouds than sun.5 mph79%29.85 "HgN/A
4:00 PM84 °FMore clouds than sun.6 mph79%29.85 "HgN/A
3:00 PM84 °FMore clouds than sun.6 mph79%29.87 "HgN/A
2:00 PM84 °FMore clouds than sun.7 mph79%29.88 "HgN/A
1:00 PM84 °FMore clouds than sun.7 mph79%29.91 "HgN/A
12:00 PM82 °FBroken clouds.3 mph84%29.92 "HgN/A
11:00 AM82 °FPartly sunny.7 mph84%29.93 "HgN/A
10:00 AM81 °FPartly sunny.10 mph89%29.93 "HgN/A
9:00 AM81 °FBroken clouds.14 mph84%29.94 "HgN/A
8:00 AM81 °FBroken clouds.15 mph89%29.92 "HgN/A
7:00 AM81 °FThunderstorms. Broken clouds.14 mph89%29.90 "HgN/A
6:00 AM81 °FPartly sunny.12 mph89%29.88 "HgN/A
5:00 AM82 °FPassing clouds.6 mph89%29.87 "HgN/A
Weather by CustomWeather, © 2016

See weather overviewHow to use our weather pages